Powrót do katalogu

STARLINK-35447

AktywnyŁącznośćVLEO
NORAD 66589·PAYLOAD·🇺🇸 United States

Wystrzelony Nov 22, 2025 z Cape Canaveral Space Force Station

Loading…

Następne Przeloty (najbliższe 24 godziny)

TLE

ŚwieżeSource: CelesTrak SupGP

Epoka: Sep 15, 2026, 02:40 UTC

1 66589C 25270B   26258.11159722 -.00016209  00000+0 -58699-3 0  2588
2 66589  43.0004  66.4215 0001513 268.7909 161.1420 15.27591053    16

Śledź STARLINK-35447 w czasie rzeczywistym z AllMySat

Download on the App Store